EW0349 Weather Reports


time (UTC)temp
C
wind
direction
speed
KPH
gust
KPH
rain 1hr
cm
rain 24hr
cm
rain mn
cm
humidity
%
barometer
mb
20260831050005 16 18 0.0 4.8 0.00 0.00 0.00 63 1014.8
20260831044502 16 19 1.6 4.8 0.00 0.00 0.00 63 1014.9
20260831043057 17 21 0.0 6.4 0.00 0.00 0.00 62 1015.0
20260831041603 17 17 1.6 6.4 0.00 0.00 0.00 61 1014.9
20260831040049 17 14 1.6 6.4 0.00 0.00 0.00 60 1014.9
20260831034544 17 16 1.6 4.8 0.00 0.00 0.00 60 1014.8
20260831033039 18 19 1.6 6.4 0.00 0.00 0.00 59 1014.7
20260831031540 18 5 1.6 12.9 0.00 0.00 0.00 60 1014.8
20260831030030 18 17 1.6 8.0 0.00 0.00 0.00 59 1014.8
20260831024528 19 24 1.6 6.4 0.00 0.00 0.00 58 1014.8
20260831023021 20 24 1.6 8.0 0.00 0.00 0.00 56 1014.8
20260831021517 20 10 1.6 9.7 0.00 0.00 0.00 55 1014.9
20260831020012 21 22 3.2 8.0 0.00 0.00 0.00 53 1014.9
20260831014512 21 12 0.0 9.7 0.00 0.00 0.00 53 1014.9
20260831013004 21 97 1.6 9.7 0.00 0.00 0.00 51 1015.1
20260831011612 21 18 3.2 11.3 0.00 0.00 0.00 51 1015.2
20260831010055 21 16 4.8 11.3 0.00 0.00 0.00 50 1015.3
20260831004551 22 44 3.2 8.0 0.00 0.00 0.00 50 1015.5
20260831003046 22 22 1.6 9.7 0.00 0.00 0.00 49 1015.7
20260831001551 22 44 1.6 9.7 0.00 0.00 0.00 49 1015.8
20260831000037 22 15 6.4 11.3 0.00 0.00 0.00 48 1015.9
20260830234550 22 9 3.2 9.7 0.00 0.00 0.00 49 1016.1
20260830233032 22 9 4.8 11.3 0.00 0.00 0.00 46 1016.4
20260830231526 22 57 3.2 9.7 0.00 0.00 0.00 46 1016.5
20260830230031 22 18 3.2 9.7 0.00 0.00 0.00 47 1016.7
20260830224526 22 18 3.2 11.3 0.00 0.00 0.00 44 1016.9
20260830223018 22 127 3.2 16.1 0.00 0.00 0.00 45 1017.2
20260830221507 22 292 3.2 16.1 0.00 0.00 0.00 45 1017.4
20260830220005 22 82 1.6 9.7 0.00 0.00 0.00 46 1017.6
20260830214605 22 22 3.2 16.1 0.00 0.00 0.00 47 1017.9
20260830213100 22 38 3.2 9.7 0.00 0.00 0.00 45 1018.1
20260830211550 22 15 6.4 11.3 0.00 0.00 0.00 45 1018.3
20260830210045 21 19 1.6 11.3 0.00 0.00 0.00 47 1018.3
20260830204540 21 17 3.2 9.7 0.00 0.00 0.00 48 1018.5
20260830203036 21 106 1.6 12.9 0.00 0.00 0.00 50 1018.6
20260830201602 21 69 3.2 8.0 0.00 0.00 0.00 50 1018.9
20260830200027 20 156 1.6 9.7 0.00 0.00 0.00 52 1019.0
20260830194523 20 17 4.8 9.7 0.00 0.00 0.00 51 1019.2
20260830193019 20 32 0.0 6.4 0.00 0.00 0.00 52 1019.5
20260830191517 19 36 1.6 8.0 0.00 0.00 0.00 53 1019.7
20260830190013 18 19 4.8 12.9 0.00 0.00 0.00 53 1019.9
20260830184505 18 24 1.6 9.7 0.00 0.00 0.00 55 1019.9
20260830183000 18 73 1.6 12.9 0.00 0.00 0.00 55 1020.0
20260830181607 18 63 1.6 9.7 0.00 0.00 0.00 54 1020.3
20260830180059 17 5 0.0 9.7 0.00 0.00 0.00 56 1020.2
20260830174548 17 70 0.0 8.0 0.00 0.00 0.00 56 1020.1
20260830173043 16 14 3.2 11.3 0.00 0.00 0.00 55 1020.2
20260830171539 16 28 3.2 8.0 0.00 0.00 0.00 54 1020.1
20260830170034 15 26 1.6 11.3 0.00 0.00 0.00 51 1020.3
20260830164532 14 22 3.2 6.4 0.00 0.00 0.00 44 1020.3
20260830163033 13 19 0.0 4.8 0.00 0.00 0.00 35 1020.4
20260830161521 13 19 1.6 6.4 0.00 0.00 0.00 30 1020.5
20260830160017 12 45 0.0 4.8 0.00 0.00 0.00 19 1020.6
20260830154512 12 39 0.0 4.8 0.00 0.00 0.00 100 1020.6
20260830153026 11 92 0.0 8.0 0.00 0.00 0.00 100 1020.5
20260830151509 10 346 0.0 3.2 0.00 0.00 0.00 100 1020.7
20260830150105 9 345 0.0 1.6 0.00 0.00 0.00 100 1020.8
20260830144554 8 345 0.0 0.0 0.00 0.00 0.00 100 1020.8
20260830143057 7 345 0.0 1.6 0.00 0.00 0.00 100 1020.8
20260830141552 7 345 0.0 0.0 0.00 0.00 0.00 100 1020.8
20260830140042 6 345 0.0 0.0 0.00 0.03 0.00 100 1020.7
20260830134539 6 345 0.0 1.6 0.00 0.03 0.00 100 1020.7
20260830133041 6 345 0.0 1.6 0.00 0.03 0.00 100 1020.6
20260830131529 6 345 0.0 0.0 0.00 0.03 0.00 100 1020.6
20260830130023 6 345 0.0 0.0 0.00 0.03 0.00 100 1020.4
20260830124519 6 345 0.0 0.0 0.00 0.03 0.00 100 1020.3
20260830123015 7 345 0.0 1.6 0.00 0.03 0.00 100 1020.2
20260830121510 7 346 0.0 0.0 0.00 0.03 0.00 100 1020.3
20260830120006 7 346 0.0 1.6 0.00 0.03 0.00 100 1020.3
20260830114503 7 346 0.0 0.0 0.00 0.03 0.00 100 1020.2
20260830113057 7 346 0.0 0.0 0.00 0.03 0.00 100 1020.1
20260830111554 7 346 0.0 0.0 0.00 0.03 0.00 1 1020.2
20260830110051 7 346 0.0 0.0 0.00 0.03 0.00 5 1020.3
20260830104544 7 346 0.0 0.0 0.00 0.03 0.00 5 1020.3
20260830103040 8 346 0.0 0.0 0.00 0.03 0.00 7 1020.3
20260830101535 8 346 0.0 0.0 0.00 0.03 0.00 8 1020.3
20260830100035 8 346 0.0 0.0 0.00 0.03 0.00 10 1020.2
20260830094558 8 346 0.0 0.0 0.00 0.03 0.00 10 1020.2
20260830093024 8 346 0.0 0.0 0.00 0.03 0.00 13 1020.2
20260830091521 9 346 0.0 0.0 0.00 0.03 0.00 17 1020.3
20260830090038 9 346 0.0 0.0 0.00 0.03 0.00 18 1020.3
20260830084516 10 346 0.0 0.0 0.00 0.03 0.00 22 1020.2
20260830083014 10 346 0.0 0.0 0.00 0.03 0.00 22 1020.3
20260830081511 10 346 0.0 0.0 0.00 0.03 0.00 25 1020.2
20260830080020 10 346 0.0 0.0 0.00 0.03 0.00 30 1020.2
20260830074505 11 346 0.0 0.0 0.00 0.03 0.00 31 1020.2
20260830073003 11 346 0.0 0.0 0.00 0.03 0.00 37 1020.1
20260830071500 11 346 0.0 0.0 0.00 0.03 0.00 41 1020.0
20260830070057 12 346 0.0 0.0 0.00 0.03 0.03 44 1020.1
20260830064553 12 346 0.0 0.0 0.00 0.03 0.03 47 1020.0
20260830063049 12 346 0.0 0.0 0.00 0.03 0.03 50 1020.0
20260830061607 12 346 0.0 1.6 0.00 0.03 0.03 53 1019.9
20260830060039 13 335 0.0 1.6 0.00 0.03 0.03 57 1019.8
20260830054543 13 335 0.0 1.6 0.00 0.03 0.03 59 1019.9
20260830053032 13 355 0.0 3.2 0.00 0.03 0.03 61 1019.8
20260830051526 13 355 1.6 6.4 0.00 0.03 0.03 63 1019.8